Weather History for Subic Bay, Philippines

Change the Weather History Date:

Sunday, November 4, 2012

  Actual Average Record
Temperature  
Mean Temperature 83 °F -  
Max Temperature 93 °F 86 °F 93 °F (1997)
Min Temperature 73 °F 74 °F 73 °F (2007)
Cooling Degree Days 18    
Growing Degree Days 33 (Base 50)    
Moisture  
Dew Point 74 °F    
Average Humidity 75    
Maximum Humidity 89    
Minimum Humidity 50    
Precipitation  
Precipitation 0.04 in - - ()
Sea Level Pressure  
Sea Level Pressure 29.83 in    
Wind  
Wind Speed 4 mph ()    
Max Wind Speed 12 mph    
Max Gust Speed -    
Visibility 7.1 miles    
Events      
Averages and records for this station are not official NWS values.
T = Trace of Precipitation, MM = Missing Value Source: Averaged Metar Reports

Daily Weather History Graph

Daily Weather History Graph

Search for Another Location

Airport:

Trip Planner

Search our weather history database for the weather conditions in past years. The results will help you decide how hot, cold, wet, or windy it might be!

Date:

Astronomy

Nov. 04, 2012 Rise Set
Actual Time 5:55 AM PHT 5:29 PM PHT
Civil Twilight 5:33 AM PHT 5:51 PM PHT
Nautical Twilight 5:07 AM PHT 6:16 PM PHT
Astronomical Twilight 4:42 AM PHT 6:42 PM PHT
Moon 9:44 PM PHT (11/4) 10:03 AM PHT (11/4)
Length of Visible Light 12h 17m
Length of Day
11h 33m
Waning Gibbous, 76% of the Moon is Illuminated
Nov 4
Waning Gibbous
Nov 7
Last Quarter
Nov 14
New
Nov 20
First Quarter
Nov 28
Full

Hourly Weather History & Observations

Time (PHT) Temp. Heat Index Dew Point Humidity Pressure Visibility Wind Dir Wind Speed Gust Speed Precip Events Conditions
12:00 AM 78.8 °F - 73.4 °F 83% 29.86 in 6.2 mi Variable 2.3 mph - N/A   Partly Cloudy
1:00 AM 77.0 °F - 73.4 °F 89% 29.83 in 6.2 mi East 4.6 mph - N/A   Partly Cloudy
2:00 AM 77 °F - 73 °F 85% 29.84 in 7 mi East 6.7 mph - -   Haze
2:00 AM 77.0 °F - 73.4 °F 89% 29.83 in 6.2 mi East 4.6 mph - N/A   Partly Cloudy
5:00 AM 77 °F - 73 °F 83% 29.84 in 7 mi Calm Calm - -   Haze
5:00 AM 77.0 °F - 73.4 °F 89% 29.83 in 6.2 mi Variable 2.3 mph - N/A   Partly Cloudy
6:00 AM 75.2 °F - 71.6 °F 89% 29.83 in 6.2 mi East 4.6 mph - N/A   Partly Cloudy
7:00 AM 77.0 °F - 71.6 °F 83% 29.86 in 6.2 mi NE 4.6 mph - N/A   Unknown
8:00 AM 81 °F - 73 °F 70% 29.88 in 12 mi NNE 2.2 mph - -   Haze
8:00 AM 80.6 °F 84.6 °F 71.6 °F 74% 29.86 in 6.2 mi NNE 3.5 mph - N/A   Unknown
9:00 AM 84.2 °F 90.9 °F 73.4 °F 70% 29.89 in 6.2 mi NE 5.8 mph - N/A   Partly Cloudy
10:00 AM 87.8 °F 95.6 °F 73.4 °F 62% 29.86 in 6.2 mi ENE 9.2 mph - N/A   Partly Cloudy
11:00 AM 89 °F - 73 °F 50% 29.86 in 12 mi East 6.7 mph - -   Haze
11:00 AM 89.6 °F 96.2 °F 71.6 °F 55% 29.86 in 6.2 mi East 8.1 mph - N/A   Partly Cloudy
12:00 PM 89.6 °F 96.2 °F 71.6 °F 55% 29.80 in 6.2 mi East 9.2 mph - N/A   Partly Cloudy
1:00 PM 89.6 °F 96.2 °F 71.6 °F 55% 29.77 in 6.2 mi East 9.2 mph - N/A   Partly Cloudy
2:00 PM 88 °F - 75 °F 57% 29.78 in 12 mi SSW 11.2 mph - -   Haze
2:00 PM 87.8 °F 97.6 °F 75.2 °F 66% 29.77 in 6.2 mi SSW 11.5 mph - N/A   Mostly Cloudy
3:00 PM 87.8 °F 97.6 °F 75.2 °F 66% 29.77 in 6.2 mi WSW 11.5 mph - N/A   Scattered Clouds
4:00 PM 87.8 °F 97.6 °F 75.2 °F 66% 29.77 in 6.2 mi South 4.6 mph - N/A   Scattered Clouds
5:00 PM 86 °F - 75 °F 63% 29.80 in 12 mi North 4.5 mph - -   Haze
5:00 PM 86.0 °F 95.1 °F 75.2 °F 70% 29.80 in 6.2 mi North 5.8 mph - N/A   Scattered Clouds
6:00 PM 80.6 °F 87.1 °F 77.0 °F 89% 29.80 in 6.2 mi Variable 3.5 mph - N/A   Overcast
7:00 PM 80.6 °F 87.1 °F 77.0 °F 89% 29.83 in 6.2 mi Variable 2.3 mph - N/A   Partly Cloudy
8:00 PM 80 °F - 75 °F 79% 29.86 in 7 mi ENE 4.5 mph - -   Haze
8:00 PM 80.6 °F 86.2 °F 75.2 °F 84% 29.86 in 6.2 mi ENE 4.6 mph - N/A   Partly Cloudy
9:00 PM 78.8 °F - 75.2 °F 89% 29.86 in 6.2 mi ENE 4.6 mph - N/A   Partly Cloudy
10:00 PM 78.8 °F - 73.4 °F 83% 29.86 in 6.2 mi ENE 5.8 mph - N/A   Partly Cloudy
11:00 PM 78.8 °F - 73.4 °F 83% 29.86 in 6.2 mi Variable 1.2 mph - N/A   Partly Cloudy